Location: Bastelaar
(51.0950°N, 3.8602°E)
Time: 16:40:51
(UTC+00:00)

Cosmos 2082 Rocket - Pass Details

Date: 18 November 2025
Orbit: 834 x 851 km, 71.0° (Epoch: 12 December)

Event Time Altitude Azimuth Distance (km) Brightness Sun altitude
Rises 17:30:17 0° 329° (NNW) 3,393 5.6 -15.0°
Reaches altitude 10° 17:32:43 10° 329° (NNW) 2,455 4.8 -15.4°
Maximum altitude 17:38:22 87° 244° (WSW) 843 2.2 -16.3°
Drops below altitude 10° 17:43:59 10° 154° (SSE) 2,442 4.4 -17.2°
Sets 17:46:24 0° 154° (SSE) 3,374 5.2 -17.5°
